{"data":{"norad_id":65915,"epoch":"2026-09-20T11:50:25.849536Z","epoch_age_seconds":103658,"freshness":"FRESH","line1":"1 65915U 25225F   26263.49335474  .00024445  00000+0  73209-3 0  9992","line2":"2 65915  53.1612 339.4253 0001266  83.5374 276.5773 15.34407817 54253","mean_motion":15.34407817,"eccentricity":0.0001266,"inclination_deg":53.1612,"raan_deg":339.4253,"arg_perigee_deg":83.5374,"mean_anomaly_deg":276.5773,"bstar":0.00073209,"rev_number":5425,"period_min":93.847279976416,"perigee_km":461.81395910136,"apogee_km":463.54605396741,"semimajor_km":6840.8170065344,"source":"CELESTRAK","updated_at":"2026-09-21T09:00:35.763108Z"}}